Regional Weather Roundup
Issued by NWS

Home | Current Version | Previous Version | Graphics & Text | Print | Product List | Glossary On
Versions: 1 2 3 4 5 6 7 8 9 10 11 12 13 14 15 16 17 18 19 20 21 22 23 24 25 26 27 28 29 30 31 32 33 34 35 36 37 38 39 40 41 42 43 44 45 46 47 48 49 50
551
ASUS43 KFSD 261810
RWRSD

WEATHER ROUNDUP FOR SOUTH DAKOTA
NATIONAL WEATHER SERVICE SIOUX FALLS SD
100 PM CDT SAT MAY 26 2018

NOTE: "FAIR" INDICATES FEW OR NO CLOUDS BELOW 12,000 FEET WITH NO
SIGNIFICANT WEATHER AND/OR OBSTRUCTIONS TO VISIBILITY.


SDZ001>005-009-010-012>017-261900-
NORTHWEST AND NORTH CENTRAL SOUTH DAKOTA

CITY           SKY/WX    TMP DP  RH WIND       PRES   REMARKS
BUFFALO          N/A     87  57  35 SE13      29.73F
FAITH            N/A     82  65  56 SE10      29.79F
MOBRIDGE       SUNNY     86  56  35 S3        29.76F
$$

SDZ012>016-024>037-041>051-057-063-072>074-261900-
SOUTHWEST AND SOUTH CENTRAL SOUTH DAKOTA

CITY           SKY/WX    TMP DP  RH WIND       PRES   REMARKS
RAPID CTY ARPT SUNNY     81  61  50 S13       29.80F
PIERRE         SUNNY     86  65  49 SE8       29.76F
CUSTER         SUNNY     78  48  34 VRB5      29.94F
ELLSWORTH AFB  SUNNY     82  60  46 S15       29.79F
PHILIP         SUNNY     85  66  53 SE13      29.76F
PINE RIDGE     SUNNY     89  56  32 S18       29.82F
SPEARFISH      LGT RAIN  86  55  35 E12G17    29.79F
WINNER         FAIR      88  65  46 S8        29.80F
$$

SDZ004>011-016>023-039-040-261900-
NORTHEAST SOUTH DAKOTA

CITY           SKY/WX    TMP DP  RH WIND       PRES   REMARKS
ABERDEEN       SUNNY     92  51  24 N6        29.75F
WATERTOWN      SUNNY     86  54  33 W8        29.78F
BROOKINGS      SUNNY     89  55  31 W13       29.79S
SISSETON         N/A     91  51  25 W14       29.73S
$$

SDZ017-020-022-023-036>040-048>070-261900-
SOUTHEAST SOUTH DAKOTA

CITY           SKY/WX    TMP DP  RH WIND       PRES   REMARKS
SIOUX FALLS    MOSUNNY   89  60  37 VRB7G18   29.78F
HURON          SUNNY     90  59  35 CALM      29.76F
CHAMBERLAIN    SUNNY     90  64  42 S5        29.79S
MITCHELL       SUNNY     90  63  40 CALM      29.77F
YANKTON        SUNNY     90  54  29 W3        29.79F
$$

ABBREVIATIONS USED IN REMARKS
   TC - TEMPERATURE IN CELSIUS
  WCI - WIND CHILL INDEX
   HX - HEAT INDEX
  VSB - VISIBILITY





USA.gov is the U.S. government's official web portal to all federal, state and local government web resources and services.